Weather History for KSWO - March, 2014

Change the Weather History Date:

Wednesday, March 5, 2014

  Actual Average Record
Temperature  
Mean Temperature 40 °F -  
Max Temperature 52 °F 53 °F 84 °F (2009)
Min Temperature 28 °F 29 °F 10 °F (2015)
Degree Days  
Heating Degree Days 25    
Moisture  
Dew Point 30 °F    
Average Humidity 79    
Maximum Humidity 93    
Minimum Humidity 44    
Precipitation  
Precipitation 0.19 in - - ()
Sea Level Pressure  
Sea Level Pressure 30.17 in    
Wind  
Wind Speed 7 mph (North)    
Max Wind Speed 12 mph    
Max Gust Speed 17 mph    
Visibility 6 miles    
Events Rain , Snow    
Averages and records for this station are not official NWS values.
T = Trace of Precipitation, MM = Missing Value Source: NWS Daily Summary

Daily Weather History Graph

Daily Weather History Graph

Search for Another Location

Airport or City:

Trip Planner

Search our weather history database for the weather conditions in past years. The results will help you decide how hot, cold, wet, or windy it might be!

Date:

Astronomy

Mar. 05, 2014 Rise Set
Actual Time 6:53 AM CST 6:26 PM CST
Civil Twilight 6:27 AM CST 6:52 PM CST
Nautical Twilight 5:57 AM CST 7:22 PM CST
Astronomical Twilight 5:28 AM CST 7:52 PM CST
Moon 9:28 AM CST (3/5) 11:26 PM CST (3/5)
Length of Visible Light 12h 25m
Length of Day
11h 33m
Waxing Crescent, 23% of the Moon is Illuminated
Mar 5
Waxing Crescent
Mar 8
First Quarter
Mar 16
Full
Mar 23
Last Quarter
Mar 30
New

Hourly Weather History & Observations

Time (CST) Temp. Windchill Dew Point Humidity Pressure Visibility Wind Dir Wind Speed Gust Speed Precip Events Conditions
12:53 AM 33.1 °F 26.9 °F 25.0 °F 72% 30.03 in 10.0 mi SE 6.9 mph - N/A   Clear
1:53 AM 32.0 °F 24.8 °F 25.0 °F 75% 30.01 in 10.0 mi SE 8.1 mph - N/A   Clear
2:53 AM 32.0 °F 28.7 °F 26.1 °F 79% 30.01 in 10.0 mi SE 3.5 mph - N/A   Clear
3:53 AM 30.9 °F 26.2 °F 25.0 °F 79% 30.02 in 10.0 mi SE 4.6 mph - N/A   Clear
4:53 AM 28.9 °F 23.9 °F 24.1 °F 82% 30.03 in 10.0 mi ESE 4.6 mph - N/A   Clear
5:53 AM 28.9 °F 22.8 °F 24.1 °F 82% 30.04 in 10.0 mi East 5.8 mph - N/A   Clear
6:53 AM 28.0 °F 20.8 °F 24.1 °F 85% 30.08 in 9.0 mi NE 6.9 mph - N/A   Partly Cloudy
7:53 AM 33.1 °F 26.1 °F 27.0 °F 78% 30.10 in 10.0 mi East 8.1 mph - N/A   Overcast
8:53 AM 36.0 °F 29.6 °F 28.0 °F 73% 30.13 in 10.0 mi ESE 8.1 mph - N/A   Scattered Clouds
9:53 AM 37.0 °F 33.3 °F 28.0 °F 70% 30.15 in 10.0 mi SE 4.6 mph - N/A   Partly Cloudy
10:53 AM 39.9 °F 35.8 °F 28.9 °F 65% 30.16 in 10.0 mi SSE 5.8 mph - N/A   Overcast
11:53 AM 43.0 °F - 30.0 °F 60% 30.16 in 10.0 mi Calm Calm - N/A   Overcast
12:53 PM 48.9 °F - 30.9 °F 50% 30.13 in 10.0 mi Variable 6.9 mph - N/A   Clear
1:53 PM 52.0 °F - 30.9 °F 45% 30.12 in 10.0 mi North 9.2 mph - N/A   Clear
2:53 PM 51.1 °F - 30.0 °F 44% 30.11 in 10.0 mi NNE 11.5 mph - N/A   Partly Cloudy
3:53 PM 46.9 °F - 30.9 °F 54% 30.13 in 10.0 mi NNW 11.5 mph 17.3 mph N/A   Overcast
4:53 PM 45.0 °F 39.3 °F 30.9 °F 58% 30.15 in 10.0 mi NNW 11.5 mph - N/A   Overcast
5:53 PM 44.1 °F 39.0 °F 30.9 °F 60% 30.17 in 10.0 mi NNW 9.2 mph - N/A   Overcast
6:33 PM 39.2 °F 35.0 °F 33.8 °F 81% 30.18 in 5.0 mi NNW 5.8 mph - 0.02 in Rain Light Rain
6:53 PM 39.0 °F 33.4 °F 35.1 °F 86% 30.20 in 5.0 mi NNW 8.1 mph - 0.04 in Rain Light Rain
7:12 PM 35.6 °F 28.0 °F 32.0 °F 87% 30.20 in 2.5 mi NNW 10.4 mph - 0.04 in Snow Light Snow
7:23 PM 33.8 °F 27.0 °F 32.0 °F 93% 30.20 in 1.5 mi NNW 8.1 mph - 0.05 in Snow Light Snow
7:53 PM 34.0 °F 27.2 °F 32.0 °F 92% 30.22 in 1.0 mi North 8.1 mph - 0.08 in Snow Light Snow
8:13 PM 33.8 °F 27.0 °F 32.0 °F 93% 30.21 in 1.8 mi North 8.1 mph - 0.01 in Rain Light Freezing Rain
8:20 PM 33.8 °F 27.7 °F 32.0 °F 93% 30.21 in 2.0 mi North 6.9 mph - 0.02 in Rain Light Freezing Rain
8:40 PM 33.8 °F 26.4 °F 32.0 °F 93% 30.22 in 2.0 mi North 9.2 mph - 0.02 in Rain Light Rain
8:51 PM 33.8 °F 27.0 °F 32.0 °F 93% 30.22 in 2.5 mi North 8.1 mph - 0.03 in Rain Light Freezing Rain
8:53 PM 34.0 °F 28.0 °F 32.0 °F 92% 30.24 in 2.5 mi North 6.9 mph - 0.03 in Rain Light Freezing Rain
9:19 PM 33.8 °F 27.7 °F 32.0 °F 93% 30.23 in 2.5 mi NNW 6.9 mph - 0.01 in   Overcast
9:53 PM 35.1 °F 28.6 °F 32.0 °F 89% 30.25 in 2.5 mi NNW 8.1 mph - 0.02 in   Overcast
10:03 PM 35.6 °F 29.2 °F 32.0 °F 87% 30.24 in 3.0 mi NNW 8.1 mph - 0.01 in   Overcast
10:13 PM 35.6 °F 29.9 °F 32.0 °F 87% 30.24 in 3.0 mi NW 6.9 mph - 0.01 in   Overcast
10:24 PM 35.6 °F 29.2 °F 32.0 °F 87% 30.25 in 3.0 mi NW 8.1 mph - 0.01 in   Overcast
10:53 PM 35.1 °F 29.3 °F 32.0 °F 89% 30.26 in 3.0 mi NNW 6.9 mph - 0.02 in   Overcast
11:07 PM 33.8 °F 28.6 °F 32.0 °F 93% 30.25 in 3.0 mi NNW 5.8 mph - N/A   Overcast
11:40 PM 33.8 °F 29.6 °F 32.0 °F 93% 30.24 in 3.0 mi NNW 4.6 mph - N/A   Overcast
11:49 PM 33.8 °F 28.6 °F 32.0 °F 93% 30.24 in 2.5 mi NW 5.8 mph - N/A   Overcast
11:53 PM 35.1 °F 32.2 °F 32.0 °F 89% 30.25 in 2.5 mi NNW 3.5 mph - N/A   Overcast